RYR871V LBSF-EDDN

Flight info

Callsign RYR871V
Flight time 1h 44m
Altitude 38000
Route GODEK3S GODEK DCT GAZON DCT OKTAS DCT OSDUK DCT DIMLO DCT EPOLA DCT MEDEL DCT ANZON DCT UPALA UPALA1T
Aircraft B738/M-SDE2E3FGHIRWXY/LB1

Departure

Time 2026-05-01 13:07
Airport Sofia Airport (LBSF)

Arrival

Time 2026-05-01 14:51
Airport Nuremberg Airport (EDDN)
Time Latitude Longitude Altitude Speed Heading
2026-05-01 12:37 42.69028 23.41083 1749 ft 0 kts 162°
2026-05-01 13:00 42.68951 23.41045 1745 ft 12 kts 247°
2026-05-01 13:00 42.68913 23.40879 1745 ft 20 kts 260°
2026-05-01 13:01 42.68980 23.40523 1745 ft 19 kts 286°
2026-05-01 13:01 42.69017 23.40354 1747 ft 18 kts 287°
2026-05-01 13:01 42.69090 23.40023 1747 ft 19 kts 284°
2026-05-01 13:02 42.69116 23.39848 1742 ft 19 kts 287°
2026-05-01 13:07 42.77382 23.52410 7341 ft 268 kts
2026-05-01 13:07 42.79252 23.52391 8131 ft 270 kts
2026-05-01 13:07 42.81136 23.52384 8885 ft 274 kts
2026-05-01 13:08 42.83064 23.52382 9597 ft 278 kts
2026-05-01 13:08 42.84991 23.52067 9922 ft 282 kts 340°
2026-05-01 13:08 42.86619 23.50594 10069 ft 286 kts 314°
2026-05-01 13:08 42.87899 23.48399 10278 ft 308 kts 306°
2026-05-01 13:09 42.89165 23.45906 10489 ft 330 kts 305°
2026-05-01 13:09 42.90468 23.43262 10948 ft 340 kts 304°
2026-05-01 13:09 42.91793 23.40570 11652 ft 343 kts 305°
2026-05-01 13:09 42.93132 23.37870 12391 ft 345 kts 306°
2026-05-01 13:10 42.94488 23.35153 13107 ft 348 kts 306°
2026-05-01 13:10 42.95849 23.32445 13800 ft 352 kts 307°
2026-05-01 13:10 42.97243 23.29678 14461 ft 355 kts 307°
2026-05-01 13:10 42.98648 23.26886 15099 ft 358 kts 307°
2026-05-01 13:11 43.00062 23.24075 15737 ft 360 kts 306°
2026-05-01 13:11 43.01481 23.21254 16413 ft 361 kts 306°
2026-05-01 13:11 43.02912 23.18410 17043 ft 364 kts 306°
2026-05-01 13:11 43.04355 23.15539 17603 ft 369 kts 306°
2026-05-01 13:12 43.05806 23.12651 18330 ft 368 kts 306°
2026-05-01 13:12 43.07258 23.09755 18910 ft 371 kts 306°
2026-05-01 13:12 43.08708 23.06863 19336 ft 376 kts 306°
2026-05-01 13:12 43.10188 23.03908 19932 ft 376 kts 306°
2026-05-01 13:13 43.11668 23.00948 20454 ft 379 kts 306°
2026-05-01 13:13 43.13170 22.97949 20878 ft 384 kts 306°
2026-05-01 13:13 43.14692 22.94946 21464 ft 384 kts 306°
2026-05-01 13:13 43.16228 22.91937 21935 ft 387 kts 306°
2026-05-01 13:14 43.17780 22.88900 22404 ft 390 kts 306°
2026-05-01 13:14 43.19339 22.85847 22895 ft 393 kts 306°
2026-05-01 13:14 43.20911 22.82761 23309 ft 396 kts 306°
2026-05-01 13:14 43.22492 22.79652 23783 ft 398 kts 306°
2026-05-01 13:15 43.24058 22.76568 24174 ft 401 kts 306°
2026-05-01 13:15 43.25657 22.73413 24524 ft 404 kts 306°
2026-05-01 13:15 43.27264 22.70239 24919 ft 406 kts 306°
2026-05-01 13:15 43.28876 22.67053 25272 ft 408 kts 306°
2026-05-01 13:16 43.30501 22.63834 25616 ft 411 kts 306°
2026-05-01 13:16 43.32133 22.60599 25989 ft 413 kts 306°
2026-05-01 13:16 43.33771 22.57347 26346 ft 415 kts 306°
2026-05-01 13:17 43.38741 22.47464 27350 ft 422 kts 306°
2026-05-01 13:17 43.40411 22.44135 27713 ft 424 kts 306°
2026-05-01 13:18 43.43781 22.37406 28311 ft 429 kts 306°
2026-05-01 13:18 43.45477 22.34014 28606 ft 431 kts 306°
2026-05-01 13:18 43.47180 22.30604 28902 ft 433 kts 306°
2026-05-01 13:18 43.48888 22.27179 29209 ft 435 kts 306°
2026-05-01 13:19 43.50604 22.23735 29521 ft 437 kts 306°
2026-05-01 13:19 43.52325 22.20276 29790 ft 439 kts 306°
2026-05-01 13:19 43.55771 22.13343 30334 ft 443 kts 306°
2026-05-01 13:20 43.57507 22.09839 30668 ft 442 kts 306°
2026-05-01 13:20 43.59239 22.06341 30984 ft 442 kts 306°
2026-05-01 13:20 43.60995 22.02792 31252 ft 442 kts 306°
2026-05-01 13:21 43.64443 21.95813 31802 ft 443 kts 306°
2026-05-01 13:21 43.66172 21.92306 32134 ft 442 kts 306°
2026-05-01 13:21 43.67901 21.88791 32421 ft 442 kts 306°
2026-05-01 13:21 43.69628 21.85280 32663 ft 443 kts 306°
2026-05-01 13:22 43.71362 21.81748 32882 ft 444 kts 306°
2026-05-01 13:22 43.73093 21.78219 33139 ft 444 kts 306°
2026-05-01 13:22 43.74826 21.74683 33398 ft 444 kts 306°
2026-05-01 13:22 43.76557 21.71146 33654 ft 444 kts 306°
2026-05-01 13:23 43.78288 21.67604 33906 ft 444 kts 306°
2026-05-01 13:23 43.80017 21.64063 34169 ft 444 kts 306°
2026-05-01 13:23 43.81745 21.60519 34405 ft 444 kts 306°
2026-05-01 13:23 43.83471 21.56974 34617 ft 444 kts 306°
2026-05-01 13:24 43.85194 21.53434 34830 ft 443 kts 306°
2026-05-01 13:24 43.86915 21.49890 35040 ft 443 kts 306°
2026-05-01 13:24 43.88613 21.46390 35234 ft 443 kts 306°
2026-05-01 13:25 43.92045 21.39306 35646 ft 442 kts 306°
2026-05-01 13:25 43.93760 21.35758 35822 ft 443 kts 306°
2026-05-01 13:25 43.95474 21.32209 36014 ft 442 kts 306°
2026-05-01 13:25 43.97184 21.28663 36214 ft 442 kts 306°
2026-05-01 13:26 43.98891 21.25119 36401 ft 442 kts 306°
2026-05-01 13:26 44.00600 21.21568 36564 ft 442 kts 306°
2026-05-01 13:26 44.02307 21.18017 36752 ft 442 kts 306°
2026-05-01 13:26 44.04011 21.14466 36956 ft 441 kts 306°
2026-05-01 13:27 44.05712 21.10918 37142 ft 441 kts 306°
2026-05-01 13:27 44.07412 21.07367 37297 ft 441 kts 306°
2026-05-01 13:27 44.10807 21.00261 37673 ft 440 kts 306°
2026-05-01 13:28 44.14192 20.93164 37996 ft 440 kts 306°
2026-05-01 13:28 44.15861 20.89662 38134 ft 440 kts 306°
2026-05-01 13:29 44.19664 20.83026 38279 ft 439 kts 313°
2026-05-01 13:29 44.23718 20.76668 38290 ft 438 kts 314°
2026-05-01 13:31 44.35719 20.57503 38294 ft 436 kts 313°
2026-05-01 13:32 44.45623 20.41439 38302 ft 436 kts 313°
2026-05-01 13:33 44.55498 20.25337 38311 ft 436 kts 313°
2026-05-01 13:34 44.63390 20.12404 38318 ft 437 kts 313°
2026-05-01 13:35 44.69285 20.02703 38321 ft 438 kts 313°
2026-05-01 13:36 44.75216 19.92909 38311 ft 439 kts 313°
2026-05-01 13:36 44.81154 19.83070 38307 ft 440 kts 314°
2026-05-01 13:37 44.85115 19.76487 38306 ft 441 kts 314°
2026-05-01 13:37 44.89075 19.69892 38310 ft 441 kts 314°
2026-05-01 13:38 44.94962 19.59972 38309 ft 442 kts 313°
2026-05-01 13:39 44.98874 19.53278 38313 ft 442 kts 313°
2026-05-01 13:39 45.02781 19.46580 38313 ft 442 kts 313°
2026-05-01 13:40 45.06691 19.39871 38311 ft 442 kts 313°
2026-05-01 13:40 45.10596 19.33158 38315 ft 441 kts 314°
2026-05-01 13:41 45.14490 19.26449 38319 ft 441 kts 314°
2026-05-01 13:41 45.18381 19.19731 38311 ft 441 kts 314°
2026-05-01 13:42 45.22268 19.13002 38316 ft 441 kts 314°
2026-05-01 13:42 45.26145 19.06274 38315 ft 440 kts 314°
2026-05-01 13:43 45.29990 18.99585 38318 ft 440 kts 314°
2026-05-01 13:43 45.33859 18.92841 38317 ft 440 kts 314°
2026-05-01 13:44 45.37723 18.86086 38323 ft 440 kts 314°
2026-05-01 13:44 45.41586 18.79320 38322 ft 441 kts 314°
2026-05-01 13:45 45.45447 18.72539 38315 ft 441 kts 314°
2026-05-01 13:45 45.49310 18.65740 38323 ft 442 kts 314°
2026-05-01 13:46 45.53174 18.58921 38323 ft 442 kts 314°
2026-05-01 13:46 45.57036 18.52089 38321 ft 443 kts 314°
2026-05-01 13:47 45.60899 18.45238 38326 ft 443 kts 314°
2026-05-01 13:47 45.64736 18.38418 38326 ft 444 kts 314°
2026-05-01 13:48 45.68625 18.31487 38326 ft 444 kts 314°
2026-05-01 13:48 45.72460 18.24636 38322 ft 444 kts 314°
2026-05-01 13:49 45.76318 18.17728 38326 ft 444 kts 315°
2026-05-01 13:49 45.80163 18.10800 38319 ft 444 kts 314°
2026-05-01 13:50 45.83944 18.03787 38320 ft 444 kts 314°
2026-05-01 13:50 45.87676 17.96806 38323 ft 444 kts 314°
2026-05-01 13:51 45.91431 17.89782 38327 ft 443 kts 314°
2026-05-01 13:51 45.95178 17.82768 38328 ft 442 kts 314°
2026-05-01 13:52 45.98917 17.75758 38333 ft 441 kts 314°
2026-05-01 13:52 46.02645 17.68752 38340 ft 440 kts 314°
2026-05-01 13:53 46.06360 17.61752 38342 ft 440 kts 314°
2026-05-01 13:53 46.11918 17.51246 38340 ft 439 kts 314°
2026-05-01 13:54 46.15611 17.44243 38348 ft 439 kts 314°
2026-05-01 13:54 46.19299 17.37232 38349 ft 438 kts 314°
2026-05-01 13:55 46.22977 17.30224 38346 ft 438 kts 314°
2026-05-01 13:55 46.26650 17.23206 38348 ft 438 kts 314°
2026-05-01 13:56 46.30316 17.16185 38351 ft 437 kts 314°
2026-05-01 13:56 46.33974 17.09161 38354 ft 437 kts 314°
2026-05-01 13:57 46.37011 17.03316 38349 ft 437 kts 314°
2026-05-01 13:57 46.41280 16.95079 38347 ft 437 kts 314°
2026-05-01 13:58 46.44314 16.89211 38352 ft 437 kts 314°
2026-05-01 13:58 46.47957 16.82147 38365 ft 437 kts 313°
2026-05-01 13:59 46.52188 16.73922 38344 ft 438 kts 313°
2026-05-01 13:59 46.55213 16.68027 38339 ft 438 kts 313°
2026-05-01 14:00 46.58844 16.60932 38356 ft 437 kts 313°
2026-05-01 14:00 46.62472 16.53825 38353 ft 437 kts 313°
2026-05-01 14:01 46.66098 16.46728 38337 ft 437 kts 313°
2026-05-01 14:01 46.69719 16.39631 38348 ft 436 kts 314°
2026-05-01 14:02 46.73438 16.32763 38352 ft 434 kts 315°
2026-05-01 14:02 46.77213 16.25897 38365 ft 434 kts 315°
2026-05-01 14:03 46.80972 16.18996 38360 ft 435 kts 315°
2026-05-01 14:03 46.84717 16.12065 38353 ft 435 kts 314°
2026-05-01 14:04 46.88451 16.05123 38352 ft 435 kts 314°
2026-05-01 14:04 46.92185 15.98163 38357 ft 435 kts 314°
2026-05-01 14:05 46.95918 15.91189 38365 ft 435 kts 314°
2026-05-01 14:05 46.99626 15.84245 38355 ft 436 kts 314°
2026-05-01 14:06 47.03355 15.77243 38353 ft 436 kts 314°
2026-05-01 14:06 47.07079 15.70232 38357 ft 436 kts 314°
2026-05-01 14:07 47.10801 15.63208 38347 ft 436 kts 314°
2026-05-01 14:08 47.16374 15.52657 38355 ft 435 kts 314°
2026-05-01 14:08 47.20074 15.45629 38344 ft 435 kts 314°
2026-05-01 14:09 47.23768 15.38594 38346 ft 434 kts 313°
2026-05-01 14:09 47.27450 15.31565 38350 ft 433 kts 313°
2026-05-01 14:10 47.31127 15.24528 38350 ft 433 kts 313°
2026-05-01 14:10 47.34793 15.17494 38360 ft 433 kts 313°
2026-05-01 14:11 47.38476 15.10411 38348 ft 437 kts 313°
2026-05-01 14:11 47.44033 14.99685 38345 ft 440 kts 313°
2026-05-01 14:12 47.47747 14.92491 38340 ft 440 kts 313°
2026-05-01 14:12 47.51539 14.85415 38358 ft 438 kts 316°
2026-05-01 14:13 47.55541 14.78718 38356 ft 436 kts 317°
2026-05-01 14:13 47.59560 14.72078 38346 ft 430 kts 317°
2026-05-01 14:14 47.63514 14.65463 38371 ft 427 kts 316°
2026-05-01 14:14 47.67428 14.58855 38348 ft 425 kts 316°
2026-05-01 14:15 47.71325 14.52249 38347 ft 426 kts 316°
2026-05-01 14:15 47.75225 14.45619 38352 ft 427 kts 316°
2026-05-01 14:16 47.79134 14.38957 38355 ft 427 kts 316°
2026-05-01 14:16 47.83047 14.32271 38364 ft 430 kts 316°
2026-05-01 14:17 47.86983 14.25532 38370 ft 432 kts 315°
2026-05-01 14:17 47.90933 14.18750 38358 ft 435 kts 315°
2026-05-01 14:18 47.94900 14.11920 38355 ft 436 kts 315°
2026-05-01 14:18 47.98202 14.06222 38358 ft 437 kts 315°
2026-05-01 14:19 48.02823 13.98228 38357 ft 437 kts 315°
2026-05-01 14:19 48.06792 13.91341 38348 ft 437 kts 315°
2026-05-01 14:20 48.12729 13.81007 38351 ft 436 kts 315°
2026-05-01 14:21 48.16669 13.74126 38347 ft 435 kts 315°
2026-05-01 14:21 48.20597 13.67253 38361 ft 434 kts 314°
2026-05-01 14:22 48.26496 13.56991 38354 ft 432 kts 315°
2026-05-01 14:22 48.30419 13.50169 38353 ft 431 kts 314°
2026-05-01 14:23 48.34326 13.43353 38361 ft 430 kts 314°
2026-05-01 14:23 48.38226 13.36527 38360 ft 430 kts 314°
2026-05-01 14:24 48.42094 13.29738 38365 ft 430 kts 314°
2026-05-01 14:24 48.45989 13.22884 38362 ft 431 kts 314°
2026-05-01 14:25 48.49908 13.15973 37824 ft 437 kts 314°
2026-05-01 14:25 48.51865 13.12512 37468 ft 432 kts 314°
2026-05-01 14:25 48.53805 13.09075 37058 ft 427 kts 314°
2026-05-01 14:26 48.55721 13.05674 36664 ft 424 kts 314°
2026-05-01 14:26 48.59504 12.98953 35884 ft 417 kts 314°
2026-05-01 14:26 48.61350 12.95669 35494 ft 414 kts 314°
2026-05-01 14:27 48.63203 12.92368 35109 ft 411 kts 314°
2026-05-01 14:27 48.65047 12.89081 34726 ft 408 kts 314°
2026-05-01 14:27 48.66877 12.85813 34338 ft 406 kts 314°
2026-05-01 14:28 48.70501 12.79331 33495 ft 401 kts 314°
2026-05-01 14:28 48.72292 12.76120 33126 ft 398 kts 314°
2026-05-01 14:28 48.74068 12.72932 32752 ft 394 kts 314°
2026-05-01 14:28 48.75829 12.69769 32374 ft 391 kts 314°
2026-05-01 14:29 48.77575 12.66628 32018 ft 388 kts 314°
2026-05-01 14:29 48.79311 12.63503 31658 ft 386 kts 314°
2026-05-01 14:30 48.84446 12.54234 30599 ft 379 kts 314°
2026-05-01 14:30 48.86114 12.51217 30223 ft 377 kts 314°
2026-05-01 14:30 48.87813 12.48138 29820 ft 374 kts 314°
2026-05-01 14:31 48.91098 12.42177 29106 ft 367 kts 314°
2026-05-01 14:31 48.92727 12.39215 28728 ft 364 kts 314°
2026-05-01 14:31 48.94344 12.36274 28377 ft 361 kts 314°
2026-05-01 14:31 48.95946 12.33355 28018 ft 358 kts 314°
2026-05-01 14:32 48.97535 12.30456 27673 ft 355 kts 314°
2026-05-01 14:32 48.99112 12.27579 27314 ft 353 kts 314°
2026-05-01 14:32 49.00571 12.24544 26737 ft 361 kts 302°
2026-05-01 14:32 49.01667 12.21048 26160 ft 368 kts 297°
2026-05-01 14:33 49.02676 12.17460 25757 ft 368 kts 296°
2026-05-01 14:33 49.03661 12.13877 25408 ft 365 kts 296°
2026-05-01 14:33 49.04640 12.10315 25072 ft 363 kts 296°
2026-05-01 14:33 49.05620 12.06776 24721 ft 362 kts 296°
2026-05-01 14:34 49.06602 12.03252 24372 ft 360 kts 296°
2026-05-01 14:34 49.07586 11.99745 24021 ft 359 kts 296°
2026-05-01 14:34 49.08567 11.96252 23630 ft 358 kts 296°
2026-05-01 14:34 49.09546 11.92771 23249 ft 356 kts 296°
2026-05-01 14:35 49.10519 11.89311 22865 ft 354 kts 296°
2026-05-01 14:35 49.11488 11.85864 22487 ft 353 kts 296°
2026-05-01 14:35 49.12452 11.82430 22120 ft 351 kts 296°
2026-05-01 14:35 49.13410 11.79011 21761 ft 350 kts 296°
2026-05-01 14:36 49.14365 11.75601 21416 ft 348 kts 296°
2026-05-01 14:36 49.15314 11.72206 21071 ft 347 kts 296°
2026-05-01 14:36 49.16245 11.68870 20733 ft 345 kts 296°
2026-05-01 14:36 49.17186 11.65497 20390 ft 344 kts 295°
2026-05-01 14:37 49.18121 11.62137 20049 ft 343 kts 295°
2026-05-01 14:37 49.19053 11.58783 19720 ft 342 kts 295°
2026-05-01 14:37 49.19980 11.55444 19389 ft 341 kts 295°
2026-05-01 14:37 49.20904 11.52110 19058 ft 340 kts 295°
2026-05-01 14:38 49.21820 11.48798 18746 ft 339 kts 295°
2026-05-01 14:38 49.22737 11.45480 18334 ft 340 kts 295°
2026-05-01 14:38 49.23665 11.42122 17774 ft 345 kts 295°
2026-05-01 14:38 49.24590 11.38768 17246 ft 349 kts 295°
2026-05-01 14:39 49.25539 11.35326 16715 ft 353 kts 295°
2026-05-01 14:39 49.26487 11.31874 16162 ft 350 kts 295°
2026-05-01 14:39 49.27423 11.28461 15638 ft 345 kts 294°
2026-05-01 14:39 49.28346 11.25091 15119 ft 341 kts 294°
2026-05-01 14:40 49.29259 11.21754 14615 ft 338 kts 294°
2026-05-01 14:40 49.30162 11.18445 14106 ft 336 kts 294°
2026-05-01 14:40 49.31070 11.15122 13577 ft 340 kts 294°
2026-05-01 14:40 49.31981 11.11778 13025 ft 338 kts 294°
2026-05-01 14:41 49.32880 11.08472 12487 ft 334 kts 294°
2026-05-01 14:41 49.33769 11.05205 11958 ft 331 kts 294°
2026-05-01 14:41 49.34647 11.01967 11440 ft 327 kts 293°
2026-05-01 14:41 49.35517 10.98752 10933 ft 325 kts 293°
2026-05-01 14:42 49.36376 10.95565 10433 ft 322 kts 293°
2026-05-01 14:42 49.37227 10.92416 10072 ft 315 kts 293°
2026-05-01 14:42 49.38051 10.89368 9800 ft 304 kts 293°
2026-05-01 14:42 49.38855 10.86398 9354 ft 301 kts 292°
2026-05-01 14:43 49.39635 10.83488 9120 ft 290 kts 292°
2026-05-01 14:43 49.40397 10.80650 8869 ft 285 kts 292°
2026-05-01 14:43 49.41155 10.77832 8646 ft 286 kts 292°
2026-05-01 14:43 49.41915 10.74993 8381 ft 288 kts 291°
2026-05-01 14:44 49.42674 10.72160 8142 ft 286 kts 292°
2026-05-01 14:44 49.44599 10.66906 7627 ft 284 kts 322°
2026-05-01 14:44 49.46330 10.65540 7349 ft 281 kts 348°
2026-05-01 14:45 49.48249 10.65404 6820 ft 275 kts 10°
2026-05-01 14:45 49.51825 10.66857 5774 ft 253 kts 38°
2026-05-01 14:45 49.52868 10.68841 5212 ft 233 kts 75°
2026-05-01 14:46 49.53069 10.71217 4719 ft 219 kts 90°
2026-05-01 14:46 49.53028 10.75518 4282 ft 183 kts 98°
2026-05-01 14:46 49.52887 10.77399 4280 ft 175 kts 98°
2026-05-01 14:47 49.52702 10.79248 4207 ft 173 kts 102°
2026-05-01 14:47 49.52509 10.81028 4264 ft 170 kts 99°
2026-05-01 14:47 49.52346 10.82889 4017 ft 171 kts 100°
2026-05-01 14:48 49.51981 10.86398 3541 ft 164 kts 99°
2026-05-01 14:48 49.51835 10.88098 3350 ft 161 kts 99°
2026-05-01 14:48 49.51504 10.91492 2925 ft 160 kts 103°
2026-05-01 14:49 49.51154 10.94792 2514 ft 157 kts 99°
2026-05-01 14:49 49.50830 10.98029 2106 ft 152 kts 100°
2026-05-01 14:50 49.50619 11.00164 1815 ft 148 kts 100°
2026-05-01 14:50 49.50213 11.04311 1239 ft 145 kts 100°
2026-05-01 14:51 49.50067 11.05826 1086 ft 142 kts 101°
2026-05-01 14:51 49.49842 11.08084 1030 ft 48 kts 99°
2026-05-01 14:52 49.49729 11.08560 1035 ft 11 kts 185°
2026-05-01 14:52 49.49679 11.08517 1034 ft 8 kts 230°
2026-05-01 14:52 49.49632 11.08423 1033 ft 6 kts 233°
2026-05-01 14:53 49.49610 11.08374 1032 ft 6 kts 238°
2026-05-01 14:53 49.49594 11.08356 1031 ft 4 kts 205°
2026-05-01 14:53 49.49556 11.08345 1030 ft 7 kts 205°
2026-05-01 14:53 49.49541 11.08273 1028 ft 8 kts 268°
2026-05-01 14:54 49.49544 11.08186 1023 ft 8 kts 277°
2026-05-01 14:54 49.49555 11.08095 1027 ft 6 kts 279°
2026-05-01 14:54 49.49564 11.07996 1027 ft 9 kts 278°
2026-05-01 14:54 49.49567 11.07891 1026 ft 8 kts 244°
2026-05-01 14:55 49.49534 11.07859 1025 ft 5 kts 191°
2026-05-01 14:55 49.49517 11.07857 1021 ft 0 kts 180°
2026-05-01 14:55 49.49514 11.07855 1025 ft 0 kts 189°
2026-05-01 14:56 49.49513 11.07855 1025 ft 0 kts 189°